Location: Gad�tanya
(48.0500°N, 20.8500°E)
Time: 10:54:39
(UTC+00:00)

Cosmos 2369 Rocket - Pass Details

Date: 05 July 2020
Orbit: 829 x 852 km, 71.0° (Epoch: 14 August)

Event Time Altitude Azimuth Distance (km) Brightness Sun altitude
Rises 23:38:31 0° 328° (NNW) 3,383 6.0 -18.1°
Reaches altitude 10° 23:41:02 10° 322° (NW) 2,446 5.1 -18.0°
Maximum altitude 23:46:21 46° 251° (WSW) 1,103 2.5 -17.8°
Enters shadow 23:48:36 30° 199° (SSW) 1,440 2.8 -17.7°
